Location: Eberholzen
(52.0549°N, 9.8531°E)
Time: 11:57:37
(UTC+00:00)

Daily predictions for brighter satellites

Satellite Brightness Start Highest point End
(mag) Time Altitude Azimuth Time Altitude Azimuth Time Altitude Azimuth
Cosmos 1603 3.9 20:22:52 10° SSW 20:28:35 87° WNW 20:34:22 10° NNE
Cosmos 1455 Rocket 3.1 20:24:17 10° N 20:28:41 90° W 20:33:01 10° S
NOSS 2-1 (C) 4.1 20:24:58 10° NW 20:29:02 62° NE 20:34:40 10° ESE
CZ-4B R/B 2.2 20:29:30 10° N 20:32:19 46° WNW 20:35:06 10° SSW
USA 245 3.9 20:30:00 10° S 20:34:57 69° WSW 20:38:57 10° NNW
S3M 4.3 20:32:05 10° SSW 20:38:17 73° WNW 20:44:27 10° N
Cosmos 1025 Rocket 3.0 20:34:55 10° S 20:39:08 66° E 20:43:25 10° NNE
NOSS 2-1 (D) 4.0 20:35:16 10° NW 20:39:25 72° NE 20:45:13 10° SE
APEX 4.4 20:37:08 10° SW 20:42:52 68° NW 20:47:35 10° NNE
Cosmos 1371 Rocket 4.2 20:38:22 10° S 20:43:27 55° ESE 20:48:37 10° NNE
Spot 2 Rocket 3.6 20:38:59 10° SSE 20:44:05 83° WSW 20:49:13 10° NNW
IRAS Rocket 4.5 20:38:28 10° NNE 20:44:07 81° WNW 20:49:42 10° SSW
Cosmos 1607 4.2 20:44:10 10° S 20:50:03 46° ESE 20:55:55 10° NE
Helios 1A Rocket 3.1 20:46:27 10° S 20:50:30 72° WSW 20:54:37 10° NNW
Cosmos 1455 2.2 20:48:23 10° N 20:52:12 77° ENE 20:56:00 10° SSE
Cosmos 1980 Rocket 4.0 20:49:45 10° NNW 20:54:22 24° NE 20:58:57 10° E
ATLAS 2AS CENTAUR R/B 2.8 20:47:13 10° NW 20:54:28 85° SW 21:01:13 10° SE
Cosmos 1536 Rocket 4.2 20:53:32 10° SSE 20:57:31 37° E 21:01:32 10° NNE
SPOT 3 Rocket 4.5 20:53:34 10° S 20:58:32 45° W 21:03:32 10° NNW
Cosmos 1697 Rocket 3.8 20:53:37 10° NNW 20:58:50 37° NE 21:04:01 10° ESE
H-2A R/B 4.4 20:57:48 10° N 21:01:27 27° WNW 21:05:10 10° WSW
USA 234 3.3 20:55:14 10° ESE 21:01:49 86° SSW 21:08:26 10° WNW
Lacrosse 4 Rocket 3.2 20:58:42 10° WSW 21:02:30 35° NW 21:06:17 10° NNE
Meteor 1-24 Rocket 3.6 20:58:30 10° S 21:03:49 90° WNW 21:09:16 10° NNE
Cosmos 1975 Rocket 3.6 20:59:28 10° SSW 21:03:54 62° WNW 21:08:20 10° N
Cosmos 1624 Rocket 4.0 20:59:37 10° SSW 21:04:50 74° ESE 21:10:04 10° NNE
SPOT 5 3.3 21:01:48 10° S 21:06:11 52° W 21:10:28 10° NNW
Cosmos 2184 Rocket 4.1 21:03:51 10° N 21:10:02 70° ENE 21:15:55 11° SSE
Cosmos 2228 3.5 21:08:36 10° N 21:12:44 47° ENE 21:16:17 13° SSE
CZ-2C R/B 3.7 21:08:48 10° NNE 21:13:29 84° ESE 21:18:02 10° SSW
RESURS DK-1 3.2 21:12:48 10° NNW 21:16:47 44° NE 21:20:38 11° ESE
Resurs 01 Rocket 4.3 21:15:53 10° WSW 21:18:03 13° W 21:20:14 10° WNW
Cosmos 1544 Rocket 4.1 21:15:45 10° NNW 21:19:59 53° W 21:24:11 10° S
Lacrosse 5 rocket 2.0 21:17:38 10° WNW 21:21:14 38° SW 21:24:15 15° SSE
ATLAS 5 CENTAUR R/B 4.4 21:09:54 10° NW 21:21:33 32° WSW 21:25:49 10° SSW
Cosmos 1656 3.7 21:16:24 10° NNW 21:21:54 84° ENE 21:26:45 14° SSE
Cosmos 2056 Rocket 3.7 21:19:25 10° SSW 21:24:50 81° WNW 21:30:18 10° NNE
Cosmos 1741 Rocket 4.2 21:21:42 10° NNW 21:27:02 71° ENE 21:31:37 14° SE
Cosmos 1726 Rocket 4.4 21:25:21 10° N 21:29:24 38° ENE 21:32:43 14° SE
ERS-1 Rocket 4.0 21:25:05 10° SSW 21:29:50 41° W 21:34:37 10° NNW
Cosmos 1833 Rocket 3.7 21:27:38 14° SSE 21:31:27 28° ESE 21:36:08 10° NE
Lacrosse 5 2.1 21:27:08 10° WNW 21:32:09 56° SW 21:36:18 15° SE
ALOS 2 4.2 21:30:18 10° ESE 21:33:53 25° ENE 21:37:29 10° N
Cosmos 1420 Rocket 4.1 21:30:45 10° SSW 21:36:00 81° WNW 21:41:21 10° NNE
Tiangong 3.3 21:35:11 10° SSW 21:36:06 12° SSW 21:36:06 12° SSW
NOSS 2-1 (E) 4.3 21:33:36 10° NW 21:38:00 57° SW 21:43:01 15° SSE
Cosmos 2084 3.1 21:34:58 10° SSW 21:38:45 62° SE 21:42:37 10° NE
SL-8 R/B 3.8 21:34:50 10° W 21:39:33 57° S 21:44:17 10° ESE
Cosmos 1271 Rocket 4.2 21:39:40 10° NNW 21:43:15 32° W 21:46:48 10° SSW
Cosmos 2082 Rocket 3.9 21:45:07 12° SE 21:47:56 17° E 21:51:29 10° ENE
FALCON 9 DEB 2.9 21:46:42 10° WSW 21:49:58 88° NNW 21:53:16 10° ENE
ARIANE 5 R/B 3.7 21:46:38 10° SSW 21:50:44 38° W 21:54:56 10° NNW
Terra 3.2 21:46:35 10° SSW 21:50:50 32° W 21:55:08 10° NNW
Cosmos 2058 Rocket 3.9 21:51:03 10° N 21:55:13 41° ENE 21:58:21 16° SE
Cosmos 2344 4.2 21:49:19 10° NW 21:57:52 86° NE 22:09:44 10° SE
USA 276 2.9 21:58:54 25° SSE 21:58:54 25° SSE 22:01:11 10° E
Cosmos 1850 Rocket 4.2 21:53:55 10° NNW 21:59:07 67° WSW 22:03:00 18° S
SAR-Lupe-4 3.6 21:57:13 10° NNE 22:00:49 82° WNW 22:03:44 15° SSW
GP-B 3.2 21:59:36 10° N 22:04:02 63° E 22:07:04 20° SSE
Cosmos 1892 Rocket 4.1 22:02:20 19° SSE 22:05:11 45° E 22:09:23 10° NNE
USA 267 3.2 22:02:22 10° ENE 22:08:58 83° SSE 22:15:32 10° WSW
Cosmos 1408 3.3 22:13:04 22° SE 22:14:41 36° E 22:17:53 10° NNE
Spot 4 3.8 22:11:56 19° SSE 22:15:20 84° ENE 22:20:10 10° NNW
COSMOS 2406 4.0 22:13:20 18° SSE 22:16:55 37° ESE 22:22:09 10° NE
Cosmos 1867 4.3 22:13:15 10° NW 22:18:39 53° NE 22:23:59 10° ESE
ASTEX 1 3.5 22:15:32 10° N 22:20:33 79° W 22:24:31 16° SSW
ADEOS Rocket 3.7 22:15:49 16° SSE 22:21:38 69° ENE 22:29:14 10° NNW
Cosmos 1331 Rocket 4.1 22:19:07 16° S 22:23:20 68° ESE 22:28:37 10° NNE
Cosmos 2369 3.8 22:17:34 10° NNW 22:23:20 76° ENE 22:27:54 17° SE
TSX-5 4.4 22:19:42 10° SSW 22:24:10 89° WNW 22:30:03 10° NE
Nadezhda 1 Rocket 4.2 22:18:57 12° SSW 22:24:40 70° WNW 22:30:45 10° N
Meteor 1-11 4.4 22:22:19 19° S 22:26:17 59° E 22:31:48 10° NNE
Cosmos 1452 Rocket 3.7 22:21:25 10° SSW 22:26:40 74° WNW 22:31:58 10° NNE
SL-16 R/B 3.9 22:22:30 10° NNW 22:27:28 30° NE 22:32:26 10° ESE
Cosmos 1825 3.5 22:26:15 19° SE 22:27:59 27° E 22:31:11 10° NNE
H-2A R/B 3.9 22:26:47 10° NNE 22:30:53 49° E 22:33:15 23° SSE
Cosmos 1328 4.0 22:28:56 18° SSW 22:31:50 71° WNW 22:35:52 10° N
Cosmos 724 4.5 22:28:13 10° SW 22:34:00 74° NW 22:39:50 10° NE
Cosmos 1980 Rocket 2.2 22:33:28 10° NNW 22:39:13 85° ENE 22:43:31 18° SSE
Cosmos 1110 Rocket 4.1 22:37:53 13° SSW 22:42:34 82° WNW 22:47:55 10° NNE
Cosmos 1697 Rocket 3.1 22:37:34 10° NW 22:43:02 52° WSW 22:46:39 21° S
ERS-2 3.1 22:40:13 10° NNE 22:43:29 32° E 22:44:58 23° SE
ATLAS 2AS CENTAUR R/B 4.1 22:39:08 10° WNW 22:44:25 23° WSW 22:48:38 13° SSW
USA 234 4.0 22:41:26 19° S 22:45:23 35° SW 22:51:20 10° WNW
Cosmos 1302 Rocket 4.2 22:43:53 21° S 22:47:11 55° ESE 22:52:16 10° NNE
Cosmos 1892 2.6 22:48:56 26° S 22:50:57 83° E 22:54:44 10° NNE
SJ 16-02 3.4 22:49:04 10° N 22:52:41 24° NE 22:56:18 10° ESE
RESURS DK-1 3.7 22:51:07 10° NW 22:54:36 27° WSW 22:56:28 19° SSW
In-Cosmos 22 Rocket 4.3 22:52:54 21° S 22:56:42 70° E 23:02:12 10° NNE
SL-8 Rocket 4.2 22:53:34 10° NNW 22:59:48 67° W 23:04:12 20° S
Cosmos 2218 Rocket 4.2 22:59:12 10° NNW 23:05:35 72° W 23:10:07 20° S
Cosmos 2322 Rocket 3.4 23:03:40 10° NNW 23:08:59 39° NE 23:14:16 10° ESE
Cosmos 2278 3.7 23:03:29 10° NNW 23:09:15 87° ENE 23:13:40 18° SSE
Cosmos 1758 Rocket 4.4 23:07:07 21° SE 23:09:28 37° E 23:13:30 10° NNE
Aureole 1 Rocket 4.4 23:03:23 10° NNW 23:09:49 75° ENE 23:16:50 14° SSE
ALOS 2 3.2 23:07:30 22° SSW 23:09:59 47° W 23:14:16 10° NNW
Cosmos 2366 rocket 4.2 23:07:28 10° NNW 23:13:42 64° W 23:18:08 20° S
Lacrosse 5 3.8 23:11:36 10° W 23:14:12 14° WSW 23:15:28 13° SW
Cosmos 1833 Rocket 3.1 23:09:26 10° SW 23:15:00 63° NW 23:20:37 10° NNE
Cosmos 2084 Rocket 3.4 23:13:44 10° NW 23:17:32 54° SW 23:19:33 26° SSE
Cosmos 1812 Rocket 3.6 23:13:33 10° N 23:18:04 78° ENE 23:20:47 23° SSE
SL-8 R/B 4.2 23:17:14 10° W 23:21:39 36° SSW 23:24:35 18° SSE
Geosat FO 4.4 23:21:57 27° SSE 23:23:42 78° WSW 23:27:18 10° NNW
Cosmos 968 Rocket 4.2 23:20:22 10° NW 23:25:13 41° WSW 23:28:10 22° SSW
Cosmos 2221 4.5 23:22:14 10° NNE 23:25:45 23° ENE 23:29:15 10° ESE
FALCON 9 DEB 3.1 23:23:04 10° W 23:26:20 78° N 23:29:38 10° E
Cosmos 2082 Rocket 2.2 23:26:55 19° SSW 23:31:12 85° ESE 23:36:57 10° NNE
Resurs 1-4 Rocket 4.3 23:28:44 10° NE 23:31:25 14° E 23:34:08 10° ESE
ATLAS 5 CENTAUR R/B 2.7 23:30:58 19° SE 23:32:00 22° ESE 23:35:11 10° ENE
Cosmos 1633 2.5 23:31:19 30° S 23:32:54 70° E 23:36:24 10° NNE
USA 276 1.9 23:30:47 10° WSW 23:33:40 55° S 23:36:32 10° E
Cosmos 1602 Rocket 3.5 23:32:14 25° S 23:34:42 84° E 23:39:03 10° NNE
BREEZE-M DEB (TANK) 4.1 23:31:23 10° W 23:35:07 63° S 23:50:43 10° ESE
Cosmos 1869 4.2 23:37:03 10° NNW 23:40:35 35° W 23:42:27 22° SW
Cosmos 1486 Rocket 4.1 23:38:28 10° NNW 23:43:37 61° WSW 23:46:54 22° S
Cosmos 2360 Rocket 3.1 23:45:13 10° NNW 23:50:45 49° NE 23:56:14 10° SE
USA 267 3.8 23:45:27 10° ENE 23:51:53 62° N 23:58:19 10° W
Cosmos 1934 Rocket 4.1 23:46:58 10° N 23:53:03 73° ENE 23:57:56 17° SSE
